West Bend, WI

11:36 PM CST on January 20, 2017 (GMT -0600)
West Bend Municipal

Weather History for KETB - October, 2014

Change the Weather History Date:

Saturday, October 18, 2014

  Actual Average Record
Temperature  
Mean Temperature 39 °F -  
Max Temperature 46 °F 54 °F 81 °F (1950)
Min Temperature 32 °F 36 °F 22 °F (1948)
Degree Days  
Heating Degree Days 26    
Moisture  
Dew Point 34 °F    
Average Humidity 75    
Maximum Humidity 100    
Minimum Humidity 57    
Precipitation  
Precipitation 0.04 in - - ()
Sea Level Pressure  
Sea Level Pressure 30.07 in    
Wind  
Wind Speed 9 mph (NNW)    
Max Wind Speed 16 mph    
Max Gust Speed 23 mph    
Visibility 10 miles    
Events Rain    
Averages and records for this station are not official NWS values.
T = Trace of Precipitation, MM = Missing Value Source: NWS Daily Summary

Daily Weather History Graph

Daily Weather History Graph

Search for Another Location

Airport or City:

Trip Planner

Search our weather history database for the weather conditions in past years. The results will help you decide how hot, cold, wet, or windy it might be!

Date:

Astronomy

Oct. 18, 2014 Rise Set
Actual Time 7:10 AM CDT 6:04 PM CDT
Civil Twilight 6:41 AM CDT 6:33 PM CDT
Nautical Twilight 6:08 AM CDT 7:06 PM CDT
Astronomical Twilight 5:34 AM CDT 7:39 PM CDT
Moon 2:00 AM CDT (10/18) 3:31 PM CDT (10/18)
Length of Visible Light 11h 52m
Length of Day
10h 54m
Waning Crescent, 24% of the Moon is Illuminated
Oct 18
Waning Crescent
Oct 23
New
Oct 30
First Quarter
Nov 6
Full
Nov 14
Last Quarter

Hourly Weather History & Observations

Time (CDT) Temp. Windchill Dew Point Humidity Pressure Visibility Wind Dir Wind Speed Gust Speed Precip Events Conditions
12:15 AM 44.6 °F 39.2 °F 37.4 °F 76% 29.87 in 10.0 mi NW 10.4 mph 17.3 mph N/A   Overcast
12:35 AM 44.6 °F 40.2 °F 37.4 °F 76% 29.88 in 10.0 mi NW 8.1 mph - N/A   Overcast
12:55 AM 44.6 °F 40.7 °F 37.4 °F 76% 29.88 in 10.0 mi NW 6.9 mph 17.3 mph N/A   Overcast
1:15 AM 44.6 °F 39.2 °F 39.2 °F 81% 29.88 in 10.0 mi NW 10.4 mph - N/A   Overcast
1:35 AM 46.4 °F 41.9 °F 39.2 °F 76% 29.89 in 10.0 mi NW 9.2 mph 16.1 mph N/A   Overcast
1:55 AM 46.4 °F 41.9 °F 39.2 °F 76% 29.90 in 10.0 mi NNW 9.2 mph - N/A   Overcast
2:15 AM 46.4 °F 40.7 °F 37.4 °F 71% 29.90 in 10.0 mi NNW 12.7 mph 18.4 mph N/A   Overcast
2:35 AM 46.4 °F 40.4 °F 37.4 °F 71% 29.91 in 10.0 mi NNW 13.8 mph 18.4 mph N/A   Overcast
2:55 AM 46.4 °F 40.7 °F 37.4 °F 71% 29.91 in 10.0 mi North 12.7 mph 20.7 mph N/A   Overcast
3:15 AM 44.6 °F 38.4 °F 35.6 °F 71% 29.91 in 10.0 mi North 12.7 mph 23.0 mph N/A   Mostly Cloudy
3:35 AM 44.6 °F 39.7 °F 35.6 °F 71% 29.93 in 10.0 mi NNW 9.2 mph - N/A   Scattered Clouds
3:55 AM 44.6 °F 41.4 °F 35.6 °F 71% 29.93 in 10.0 mi NNW 5.8 mph - N/A   Mostly Cloudy
4:15 AM 44.6 °F 39.7 °F 37.4 °F 76% 29.94 in 10.0 mi NNW 9.2 mph - N/A   Overcast
4:35 AM 44.6 °F 39.7 °F 35.6 °F 71% 29.94 in 10.0 mi NW 9.2 mph 18.4 mph N/A   Scattered Clouds
4:55 AM 44.6 °F 39.7 °F 35.6 °F 71% 29.95 in 10.0 mi NNW 9.2 mph 16.1 mph N/A   Mostly Cloudy
5:15 AM 44.6 °F 39.7 °F 35.6 °F 71% 29.96 in 10.0 mi NNW 9.2 mph - N/A   Mostly Cloudy
5:35 AM 44.6 °F 39.7 °F 35.6 °F 71% 29.96 in 10.0 mi NW 9.2 mph - N/A   Overcast
5:55 AM 44.6 °F 39.2 °F 35.6 °F 71% 29.97 in 10.0 mi NNW 10.4 mph - N/A   Overcast
6:15 AM 44.6 °F 37.4 °F 33.8 °F 66% 29.98 in 10.0 mi North 16.1 mph 23.0 mph N/A   Overcast
6:35 AM 42.8 °F 36.6 °F 33.8 °F 70% 29.99 in 10.0 mi North 11.5 mph 18.4 mph N/A   Light Drizzle
6:55 AM 42.8 °F 37.0 °F 33.8 °F 70% 30.00 in 10.0 mi North 10.4 mph 19.6 mph N/A   Light Drizzle
7:15 AM 42.8 °F 37.5 °F 33.8 °F 70% 30.01 in 10.0 mi North 9.2 mph - N/A Rain Light Rain
7:35 AM 42.8 °F 36.2 °F 35.6 °F 76% 30.02 in 10.0 mi North 12.7 mph - N/A Rain Light Rain
7:55 AM 41.0 °F 35.8 °F 35.6 °F 81% 30.03 in 10.0 mi North 8.1 mph - N/A Rain Light Rain
8:15 AM 41.0 °F 35.8 °F 35.6 °F 81% 30.04 in 10.0 mi NNW 8.1 mph - 0.01 in Rain Rain
8:35 AM 41.0 °F 33.9 °F 35.6 °F 81% 30.06 in 10.0 mi NNW 12.7 mph 17.3 mph 0.03 in Rain Rain
8:55 AM 39.2 °F 32.5 °F 35.6 °F 87% 30.07 in 10.0 mi NNW 10.4 mph 17.3 mph 0.04 in Rain Light Rain
9:15 AM 39.2 °F 32.5 °F 35.6 °F 87% 30.07 in 10.0 mi NNW 10.4 mph - N/A Rain Rain
9:35 AM 41.0 °F 35.2 °F 35.6 °F 81% 30.07 in 10.0 mi NNW 9.2 mph - N/A   Overcast
9:55 AM 41.0 °F 33.9 °F 35.6 °F 81% 30.08 in 10.0 mi NNW 12.7 mph 17.3 mph N/A   Overcast
10:15 AM 41.0 °F 33.9 °F 33.8 °F 76% 30.09 in 10.0 mi North 12.7 mph 19.6 mph N/A   Overcast
10:35 AM 41.0 °F 33.9 °F 33.8 °F 76% 30.10 in 10.0 mi North 12.7 mph - N/A   Overcast
10:55 AM 41.0 °F 33.9 °F 35.6 °F 81% 30.10 in 10.0 mi NNW 12.7 mph 17.3 mph N/A   Overcast
11:15 AM 42.8 °F 37.0 °F 35.6 °F 76% 30.11 in 10.0 mi NNW 10.4 mph 16.1 mph N/A   Overcast
11:35 AM 42.8 °F 36.2 °F 33.8 °F 70% 30.12 in 10.0 mi NNW 12.7 mph - N/A   Overcast
11:55 AM 42.8 °F 37.5 °F 33.8 °F 70% 30.12 in 10.0 mi North 9.2 mph - N/A   Overcast
12:15 PM 42.8 °F 37.5 °F 33.8 °F 70% 30.12 in 10.0 mi North 9.2 mph - N/A   Overcast
12:35 PM 42.8 °F 37.5 °F 33.8 °F 70% 30.12 in 10.0 mi North 9.2 mph - N/A   Overcast
12:55 PM 42.8 °F 39.3 °F 32.0 °F 66% 30.12 in 10.0 mi North 5.8 mph - N/A   Overcast
1:15 PM 44.6 °F 40.2 °F 33.8 °F 66% 30.12 in 10.0 mi NW 8.1 mph - N/A   Overcast
1:35 PM 42.8 °F 36.6 °F 32.0 °F 66% 30.14 in 10.0 mi NNW 11.5 mph 17.3 mph N/A   Overcast
1:55 PM 44.6 °F 38.4 °F 32.0 °F 61% 30.14 in 10.0 mi WNW 12.7 mph 17.3 mph N/A   Overcast
2:15 PM 44.6 °F 39.2 °F 32.0 °F 61% 30.13 in 10.0 mi NW 10.4 mph - N/A   Overcast
2:35 PM 44.6 °F 38.4 °F 32.0 °F 61% 30.14 in 10.0 mi NW 12.7 mph 16.1 mph N/A   Overcast
2:55 PM 44.6 °F 39.2 °F 32.0 °F 61% 30.14 in 10.0 mi NNW 10.4 mph 16.1 mph N/A   Overcast
3:15 PM 44.6 °F 39.2 °F 32.0 °F 61% 30.15 in 10.0 mi NW 10.4 mph - N/A   Mostly Cloudy
3:35 PM 46.4 °F 42.9 °F 32.0 °F 57% 30.15 in 10.0 mi NW 6.9 mph - N/A   Mostly Cloudy
3:55 PM 46.4 °F 42.9 °F 32.0 °F 57% 30.15 in 10.0 mi NNW 6.9 mph - N/A   Scattered Clouds
4:15 PM 46.4 °F 42.9 °F 32.0 °F 57% 30.15 in 10.0 mi WNW 6.9 mph - N/A   Clear
4:35 PM 46.4 °F 42.4 °F 32.0 °F 57% 30.15 in 10.0 mi NNW 8.1 mph - N/A   Clear
4:55 PM 46.4 °F 42.4 °F 32.0 °F 57% 30.15 in 10.0 mi NW 8.1 mph - N/A   Clear
5:15 PM 44.6 °F 40.7 °F 32.0 °F 61% 30.15 in 10.0 mi NNW 6.9 mph - N/A   Clear
5:35 PM 44.6 °F 40.7 °F 32.0 °F 61% 30.16 in 10.0 mi NNW 6.9 mph - N/A   Clear
5:55 PM 44.6 °F 43.1 °F 32.0 °F 61% 30.17 in 10.0 mi NW 3.5 mph - N/A   Clear
6:15 PM 42.8 °F - 32.0 °F 66% 30.17 in 10.0 mi Calm Calm - N/A   Clear
6:35 PM 42.8 °F - 32.0 °F 66% 30.17 in 10.0 mi Calm Calm - N/A   Clear
6:55 PM 37.4 °F - 32.0 °F 81% 30.17 in 10.0 mi Calm Calm - N/A   Clear
7:15 PM 37.4 °F - 32.0 °F 81% 30.16 in 10.0 mi Calm Calm - N/A   Clear
7:35 PM 35.6 °F - 32.0 °F 87% 30.17 in 10.0 mi Calm Calm - N/A   Clear
7:55 PM 35.6 °F - 32.0 °F 87% 30.17 in 10.0 mi Calm Calm - N/A   Clear
8:15 PM 33.8 °F - 32.0 °F 93% 30.17 in 10.0 mi Calm Calm - N/A   Clear
8:35 PM 33.8 °F - 32.0 °F 93% 30.18 in 10.0 mi Calm Calm - N/A   Clear
8:55 PM 33.8 °F - 32.0 °F 93% 30.18 in 10.0 mi Calm Calm - N/A   Clear
9:15 PM 33.8 °F - 32.0 °F 93% 30.18 in 10.0 mi Calm Calm - N/A   Clear
9:35 PM 32.0 °F - 32.0 °F 100% 30.18 in 10.0 mi Calm Calm - N/A   Clear
9:55 PM 32.0 °F - 32.0 °F 100% 30.18 in 10.0 mi Calm Calm - N/A   Clear
10:15 PM 32.0 °F - 32.0 °F 100% 30.18 in 4.0 mi Calm Calm - N/A   Clear
10:35 PM 32.0 °F - 32.0 °F 100% 30.18 in 10.0 mi Calm Calm - N/A   Clear
10:55 PM 32.0 °F - 30.2 °F 93% 30.18 in 10.0 mi Calm Calm - N/A   Clear
11:15 PM 32.0 °F - 30.2 °F 93% 30.18 in 10.0 mi Calm Calm - N/A   Clear
11:35 PM 32.0 °F - 30.2 °F 93% 30.17 in 7.0 mi Calm Calm - N/A   Clear
11:55 PM 32.0 °F - 30.2 °F 93% 30.17 in 10.0 mi Calm Calm - N/A   Clear